Time,TemperatureF,DewpointF,PressureIn,WindDirection,WindDirectionDegrees,WindSpeedMPH,WindSpeedGustMPH,Humidity,HourlyPrecipIn,Conditions,Clouds,dailyrainin,SoftwareType,DateUTC
2013-11-09 00:03:00,53.0,42.0,29.91,NW,315,0.0,0.0,67,0.00,,,0.00,,2013-11-09 06:03:00,
2013-11-09 00:13:00,53.0,42.0,29.91,NW,315,0.0,0.0,67,0.00,,,0.00,,2013-11-09 06:13:00,
2013-11-09 00:22:00,53.0,42.0,29.91,NW,315,0.0,0.0,67,0.00,,,0.00,,2013-11-09 06:22:00,
2013-11-09 00:43:00,54.0,42.0,29.92,West,270,0.0,1.0,63,0.00,,,0.00,,2013-11-09 06:43:00,
2013-11-09 00:54:00,53.0,41.0,29.93,NW,315,0.0,0.0,64,0.00,,,0.00,,2013-11-09 06:54:00,
2013-11-09 01:02:00,53.0,41.0,29.93,NW,315,0.0,0.0,64,0.00,,,0.00,,2013-11-09 07:02:00,
2013-11-09 01:22:00,53.0,43.0,29.93,North,360,0.0,0.0,68,0.00,,,0.00,,2013-11-09 07:22:00,
2013-11-09 01:42:00,52.0,43.0,29.93,SE,135,0.0,0.0,70,0.00,,,0.00,,2013-11-09 07:42:00,
2013-11-09 01:52:00,52.0,43.0,29.93,SE,135,0.0,2.0,71,0.00,,,0.00,,2013-11-09 07:52:00,
2013-11-09 02:21:00,52.0,44.0,29.93,North,360,0.0,0.0,74,0.00,,,0.00,,2013-11-09 08:21:00,
2013-11-09 02:32:00,52.0,44.0,29.93,North,360,0.0,0.0,74,0.00,,,0.00,,2013-11-09 08:32:00,
2013-11-09 02:42:00,52.0,44.0,29.93,North,360,0.0,0.0,74,0.00,,,0.00,,2013-11-09 08:42:00,
2013-11-09 02:52:00,53.0,44.0,29.93,NE,45,3.0,8.0,72,0.00,,,0.00,,2013-11-09 08:52:00,
2013-11-09 03:11:00,53.0,42.0,29.93,East,90,0.0,8.0,67,0.00,,,0.00,,2013-11-09 09:11:00,
2013-11-09 03:21:00,53.0,42.0,29.93,NE,45,0.0,5.0,66,0.00,,,0.00,,2013-11-09 09:21:00,
2013-11-09 03:53:00,52.0,42.0,29.93,NE,45,0.0,0.0,69,0.01,,,0.01,,2013-11-09 09:53:00,
2013-11-09 04:03:00,52.0,42.0,29.93,NE,45,0.0,0.0,69,0.01,,,0.01,,2013-11-09 10:03:00,
2013-11-09 04:12:00,52.0,42.0,29.93,NE,45,0.0,0.0,69,0.01,,,0.01,,2013-11-09 10:12:00,
2013-11-09 04:23:00,52.0,43.0,29.93,NE,45,0.0,0.0,70,0.01,,,0.01,,2013-11-09 10:23:00,
2013-11-09 04:42:00,52.0,45.0,29.93,NW,315,0.0,0.0,76,0.00,,,0.01,,2013-11-09 10:42:00,
2013-11-09 04:52:00,52.0,45.0,29.93,North,360,0.0,0.0,76,0.00,,,0.01,,2013-11-09 10:52:00,
2013-11-09 05:22:00,52.0,45.0,29.94,SW,225,0.0,0.0,77,0.00,,,0.01,,2013-11-09 11:22:00,
2013-11-09 05:42:00,52.0,46.0,29.93,NW,315,0.0,0.0,79,0.00,,,0.01,,2013-11-09 11:42:00,
2013-11-09 05:52:00,52.0,46.0,29.94,North,360,0.0,0.0,79,0.00,,,0.01,,2013-11-09 11:52:00,
2013-11-09 06:12:00,52.0,46.0,29.94,NW,315,0.0,0.0,79,0.00,,,0.01,,2013-11-09 12:12:00,
2013-11-09 06:21:00,52.0,46.0,29.94,NW,315,0.0,0.0,79,0.00,,,0.01,,2013-11-09 12:21:00,
2013-11-09 06:42:00,52.0,46.0,29.94,NW,315,0.0,0.0,79,0.00,,,0.01,,2013-11-09 12:42:00,
2013-11-09 06:52:00,52.0,46.0,29.95,North,360,0.0,0.0,81,0.00,,,0.01,,2013-11-09 12:52:00,
2013-11-09 07:11:00,52.0,47.0,29.95,NW,315,0.0,0.0,82,0.00,,,0.01,,2013-11-09 13:11:00,
2013-11-09 07:22:00,52.0,47.0,29.96,North,360,0.0,0.0,82,0.00,,,0.01,,2013-11-09 13:22:00,
2013-11-09 07:32:00,52.0,47.0,29.96,North,360,0.0,0.0,82,0.00,,,0.01,,2013-11-09 13:32:00,
2013-11-09 07:42:00,52.0,47.0,29.96,North,360,0.0,0.0,82,0.00,,,0.01,,2013-11-09 13:42:00,
2013-11-09 07:52:00,52.0,47.0,29.96,North,360,0.0,0.0,82,0.00,,,0.01,,2013-11-09 13:52:00,
2013-11-09 08:11:00,52.0,47.0,29.97,NW,315,0.0,0.0,82,0.00,,,0.01,,2013-11-09 14:11:00,
2013-11-09 08:22:00,52.0,47.0,29.98,NW,315,0.0,0.0,82,0.00,,,0.01,,2013-11-09 14:22:00,
2013-11-09 08:42:00,52.0,47.0,29.98,NW,315,0.0,0.0,82,0.00,,,0.01,,2013-11-09 14:42:00,
2013-11-09 08:52:00,52.0,47.0,29.98,NW,315,0.0,0.0,82,0.00,,,0.01,,2013-11-09 14:52:00,
2013-11-09 09:11:00,53.0,48.0,29.99,North,360,0.0,0.0,82,0.00,,,0.01,,2013-11-09 15:11:00,
2013-11-09 09:22:00,53.0,48.0,29.99,NW,315,0.0,0.0,82,0.00,,,0.01,,2013-11-09 15:22:00,
2013-11-09 09:44:00,53.0,48.0,29.98,West,270,0.0,0.0,82,0.00,,,0.01,,2013-11-09 15:44:00,
2013-11-09 09:53:00,53.0,48.0,29.98,West,270,0.0,0.0,82,0.00,,,0.01,,2013-11-09 15:53:00,
2013-11-09 10:24:00,54.0,49.0,29.98,NW,315,0.0,1.0,82,0.00,,,0.01,,2013-11-09 16:24:00,
2013-11-09 10:43:00,55.0,48.0,29.98,NW,315,0.0,1.0,78,0.00,,,0.01,,2013-11-09 16:43:00,
2013-11-09 10:52:00,55.0,48.0,29.98,NW,315,0.0,1.0,78,0.00,,,0.01,,2013-11-09 16:52:00,
2013-11-09 11:13:00,56.0,47.0,29.98,NW,315,0.0,1.0,73,0.00,,,0.01,,2013-11-09 17:13:00,
2013-11-09 11:24:00,56.0,47.0,29.98,NW,315,0.0,1.0,73,0.00,,,0.01,,2013-11-09 17:24:00,
2013-11-09 11:34:00,56.0,47.0,29.98,NW,315,0.0,1.0,73,0.00,,,0.01,,2013-11-09 17:34:00,
2013-11-09 11:43:00,56.0,47.0,29.98,NW,315,0.0,1.0,73,0.00,,,0.01,,2013-11-09 17:43:00,
2013-11-09 11:52:00,58.0,48.0,29.98,NW,315,0.0,1.0,69,0.00,,,0.01,,2013-11-09 17:52:00,
2013-11-09 12:12:00,57.0,47.0,29.97,NW,315,0.0,1.0,70,0.00,,,0.01,,2013-11-09 18:12:00,
2013-11-09 12:23:00,58.0,47.0,29.97,NW,315,0.0,0.0,68,0.00,,,0.01,,2013-11-09 18:23:00,
2013-11-09 12:42:00,58.0,47.0,29.97,West,270,0.0,0.0,68,0.00,,,0.01,,2013-11-09 18:42:00,
2013-11-09 12:52:00,59.0,48.0,29.96,NW,315,0.0,0.0,66,0.00,,,0.01,,2013-11-09 18:52:00,
2013-11-09 13:23:00,59.0,48.0,29.96,NW,315,0.0,2.0,66,0.00,,,0.01,,2013-11-09 19:23:00,
2013-11-09 13:42:00,59.0,48.0,29.96,NW,315,0.0,1.0,67,0.00,,,0.01,,2013-11-09 19:42:00,
2013-11-09 13:52:00,59.0,48.0,29.96,North,360,0.0,1.0,68,0.00,,,0.01,,2013-11-09 19:52:00,
2013-11-09 14:12:00,59.0,48.0,29.95,NW,315,0.0,1.0,66,0.00,,,0.01,,2013-11-09 20:12:00,
2013-11-09 14:22:00,59.0,47.0,29.95,NW,315,0.0,1.0,65,0.00,,,0.01,,2013-11-09 20:22:00,
2013-11-09 14:42:00,59.0,48.0,29.95,NW,315,0.0,1.0,66,0.00,,,0.01,,2013-11-09 20:42:00,
2013-11-09 14:52:00,59.0,48.0,29.95,NW,315,0.0,1.0,66,0.00,,,0.01,,2013-11-09 20:52:00,
2013-11-09 15:11:00,58.0,48.0,29.95,NW,315,0.0,0.0,69,0.00,,,0.01,,2013-11-09 21:11:00,
2013-11-09 15:22:00,58.0,48.0,29.95,NW,315,0.0,0.0,69,0.00,,,0.01,,2013-11-09 21:22:00,
2013-11-09 15:44:00,58.0,48.0,29.95,North,360,0.0,1.0,70,0.00,,,0.01,,2013-11-09 21:44:00,
2013-11-09 15:54:00,58.0,48.0,29.95,North,360,0.0,1.0,70,0.00,,,0.01,,2013-11-09 21:54:00,
2013-11-09 16:13:00,58.0,49.0,29.96,NW,315,0.0,1.0,71,0.00,,,0.01,,2013-11-09 22:13:00,
2013-11-09 16:24:00,58.0,49.0,29.96,West,270,0.0,1.0,71,0.00,,,0.01,,2013-11-09 22:24:00,
2013-11-09 16:43:00,58.0,49.0,29.96,NW,315,0.0,1.0,71,0.00,,,0.01,,2013-11-09 22:43:00,
2013-11-09 16:54:00,58.0,49.0,29.96,NW,315,0.0,1.0,71,0.00,,,0.01,,2013-11-09 22:54:00,
2013-11-09 17:22:00,57.0,48.0,29.96,NW,315,0.0,0.0,72,0.00,,,0.01,,2013-11-09 23:22:00,
2013-11-09 17:42:00,57.0,48.0,29.97,NW,315,0.0,0.0,72,0.00,,,0.01,,2013-11-09 23:42:00,
2013-11-09 17:53:00,57.0,48.0,29.97,NW,315,0.0,0.0,73,0.00,,,0.01,,2013-11-09 23:53:00,
2013-11-09 18:12:00,56.0,48.0,29.98,NW,315,0.0,0.0,74,0.00,,,0.01,,2013-11-10 00:12:00,
2013-11-09 18:21:00,56.0,48.0,29.98,NW,315,0.0,0.0,74,0.00,,,0.01,,2013-11-10 00:21:00,
2013-11-09 18:42:00,56.0,48.0,29.98,NW,315,0.0,0.0,75,0.00,,,0.01,,2013-11-10 00:42:00,
2013-11-09 18:52:00,56.0,49.0,29.98,North,360,0.0,0.0,76,0.00,,,0.01,,2013-11-10 00:52:00,
2013-11-09 19:02:00,56.0,49.0,29.98,North,360,0.0,0.0,76,0.00,,,0.01,,2013-11-10 01:02:00,
2013-11-09 19:12:00,56.0,49.0,29.98,North,360,0.0,0.0,76,0.00,,,0.01,,2013-11-10 01:12:00,
2013-11-09 19:21:00,56.0,49.0,29.98,NW,315,0.0,0.0,76,0.00,,,0.01,,2013-11-10 01:21:00,
2013-11-09 19:32:00,56.0,49.0,29.98,NW,315,0.0,0.0,76,0.00,,,0.01,,2013-11-10 01:32:00,
2013-11-09 19:42:00,56.0,49.0,29.98,NW,315,0.0,0.0,76,0.00,,,0.01,,2013-11-10 01:42:00,
2013-11-09 19:52:00,56.0,49.0,29.99,North,360,0.0,0.0,78,0.00,,,0.01,,2013-11-10 01:52:00,
2013-11-09 20:12:00,56.0,49.0,29.99,NW,315,0.0,0.0,78,0.00,,,0.01,,2013-11-10 02:12:00,
2013-11-09 20:22:00,56.0,49.0,30.00,NW,315,0.0,0.0,78,0.00,,,0.01,,2013-11-10 02:22:00,
2013-11-09 20:32:00,56.0,49.0,30.00,NW,315,0.0,0.0,78,0.00,,,0.01,,2013-11-10 02:32:00,
2013-11-09 20:42:00,56.0,49.0,30.00,NW,315,0.0,0.0,78,0.00,,,0.01,,2013-11-10 02:42:00,
2013-11-09 20:52:00,56.0,49.0,30.00,North,360,0.0,0.0,78,0.00,,,0.01,,2013-11-10 02:52:00,
2013-11-09 21:22:00,55.0,49.0,30.00,NW,315,0.0,0.0,79,0.00,,,0.01,,2013-11-10 03:22:00,
2013-11-09 21:35:00,55.0,49.0,30.00,NW,315,0.0,0.0,79,0.00,,,0.01,,2013-11-10 03:35:00,
2013-11-09 21:44:00,55.0,49.0,30.00,NW,315,0.0,0.0,79,0.00,,,0.01,,2013-11-10 03:44:00,
2013-11-09 21:54:00,55.0,49.0,30.01,West,270,0.0,0.0,79,0.00,,,0.01,,2013-11-10 03:54:00,
2013-11-09 22:02:00,-999.0,-99.9,30.01,North,360,0.0,0.0,-999,-99.99,,,-99.99,,2013-11-10 04:02:00,
2013-11-09 22:23:00,55.0,49.0,30.01,NW,315,0.0,0.0,79,0.00,,,0.01,,2013-11-10 04:23:00,
2013-11-09 22:43:00,55.0,49.0,30.02,West,270,0.0,0.0,79,0.00,,,0.01,,2013-11-10 04:43:00,
2013-11-09 22:52:00,55.0,49.0,30.02,West,270,0.0,0.0,79,0.00,,,0.01,,2013-11-10 04:52:00,
2013-11-09 23:13:00,55.0,49.0,30.02,West,270,0.0,0.0,80,0.00,,,0.01,,2013-11-10 05:13:00,
2013-11-09 23:23:00,55.0,49.0,30.02,NW,315,0.0,0.0,80,0.00,,,0.01,,2013-11-10 05:23:00,
2013-11-09 23:34:00,55.0,49.0,30.02,NW,315,0.0,0.0,80,0.00,,,0.01,,2013-11-10 05:34:00,
2013-11-09 23:43:00,55.0,49.0,30.02,NW,315,0.0,0.0,80,0.00,,,0.01,,2013-11-10 05:43:00,
2013-11-09 23:54:00,55.0,49.0,30.02,NW,315,0.0,0.0,81,0.00,,,0.01,,2013-11-10 05:54:00,